Regional Weather Roundup
Issued by NWS

Home | Current Version | Previous Version | Text Only | Print | Product List | Glossary Off
Versions: 1 2 3 4 5 6 7 8 9 10 11 12 13 14 15 16 17 18 19 20 21 22 23 24 25 26 27 28 29 30 31 32 33 34 35 36 37 38 39 40 41 42 43 44 45 46 47 48 49 50

000
ASUS43 KFSD 221210
RWRSD

WEATHER ROUNDUP FOR SOUTH DAKOTA
NATIONAL WEATHER SERVICE SIOUX FALLS SD
700 AM CDT FRI SEP 22 2017

NOTE: "FAIR" INDICATES FEW OR NO CLOUDS BELOW 12,000 FEET WITH NO
SIGNIFICANT WEATHER AND/OR OBSTRUCTIONS TO VISIBILITY.


SDZ001>005-009-010-012>017-221300-
NORTHWEST AND NORTH CENTRAL SOUTH DAKOTA

CITY           SKY/WX    TMP DP  RH WIND       PRES   REMARKS
BUFFALO          N/A     52  38  58 NE20      29.75S
FAITH            N/A     54  45  71 N23G29    29.69S
MOBRIDGE       MOCLDY    62  52  69 NE21      29.63F
$$

SDZ012>016-024>037-041>051-057-063-072>074-221300-
SOUTHWEST AND SOUTH CENTRAL SOUTH DAKOTA

CITY           SKY/WX    TMP DP  RH WIND       PRES   REMARKS
RAPID CTY ARPT CLOUDY    52  37  58 N26G36    29.77
PIERRE         CLEAR     61  60  97 S5        29.57S
CUSTER         PTCLDY    46  40  79 N8        29.80S
ELLSWORTH AFB  CLOUDY    52  38  59 N18G26    29.77
PHILIP         LGT RAIN  55  48  77 W9        29.65R
PINE RIDGE     CLOUDY    49  42  77 NW7       29.75S
SPEARFISH      CLOUDY    48  37  66 NW5       29.85R
WINNER         FAIR      75  67  76 S16       29.60S
$$

SDZ004>011-016>023-039-040-221300-
NORTHEAST SOUTH DAKOTA

CITY           SKY/WX    TMP DP  RH WIND       PRES   REMARKS
ABERDEEN       CLEAR     62  62 100 N6        29.67S
WATERTOWN      CLEAR     71  71 100 SE10      29.70S
BROOKINGS      CLEAR     73  71  93 S16       29.73S
SISSETON         N/A     69  68  96 SE3       29.70S
$$

SDZ017-020-022-023-036>040-048>070-221300-
SOUTHEAST SOUTH DAKOTA

CITY           SKY/WX    TMP DP  RH WIND       PRES   REMARKS
SIOUX FALLS    PTCLDY    77  72  84 S15       29.73S
HURON          CLEAR     74  71  91 SE12      29.63S
CHAMBERLAIN    CLEAR     77  70  81 SE8       29.61S
MITCHELL       CLEAR     76  71  85 SE14      29.65S
YANKTON        CLOUDY    76  71  85 S18       29.69S
$$

ABBREVIATIONS USED IN REMARKS
   TC - TEMPERATURE IN CELSIUS
  WCI - WIND CHILL INDEX
   HX - HEAT INDEX
  VSB - VISIBILITY




USA.gov is the U.S. government's official web portal to all federal, state and local government web resources and services.